Terminal Aerodrome Forecast
Issued by NWS Jackson, MS

Home | Current Version | Previous Version | Text Only | Print | Product List | Glossary On
Versions: 1 2 3 4 5 6 7 8 9 10 11 12 13 14 15 16 17
000
FTUS44 KMEG 270522
TAFTUP
TAF
KTUP 270522Z 2706/2806 02012KT P6SM OVC010
      TEMPO 2706/2708 SCT020
     FM270800 02006KT P6SM SCT015 BKN150
     FM271400 02008KT P6SM FEW040 BKN090
     FM271800 02010KT P6SM VCSH BKN040 OVC090
     FM280100 36005KT P6SM SCT040 BKN150=

USA.gov is the U.S. government's official web portal to all federal, state and local government web resources and services.